When you browse on this site, cookies collect data to enhance your experience and personalize the content and advertising you see.
Visit our Privacy Policy to learn more. By continuing to use the site, you agree to this use of cookies and data.
  • En España
  • Lista de países
  • Para 7 días
  • Temperatura del agua
  • Mapa Satelital
  • El tiempo en el mapa
  • Informadores
  • user-avatar
    Iniciar sesión

    Tiempo cada hora San Miguel de Tucumán

    Hoy, 23 Julio, Martes

    Tiempo Temperatura Precipitaciones Viento Presión Humedad
    00:00 +12°C° 0 mm 1 mps 723 mmHg 32%
    01:00 +12°C° 0 mm 1 mps 723 mmHg 32%
    02:00 +12°C° 0 mm 1 mps 723 mmHg 33%
    03:00 +11°C° 0 mm 1 mps 723 mmHg 34%
    04:00 +11°C° 0 mm 1 mps 723 mmHg 36%
    05:00 +10°C° 0 mm 1 mps 722 mmHg 37%
    06:00 +9°C° 0 mm 2 mps 723 mmHg 37%
    07:00 +9°C° 0 mm 2 mps 723 mmHg 37%
    08:00 +10°C° 0 mm 2 mps 724 mmHg 36%
    09:00 +12°C° 0 mm 2 mps 724 mmHg 33%
    10:00 +12°C° 0 mm 3 mps 725 mmHg 31%
    11:00 +13°C° 0 mm 4 mps 725 mmHg 28%
    12:00 +14°C° 0 mm 4 mps 724 mmHg 28%
    13:00 +14°C° 0 mm 4 mps 724 mmHg 28%
    14:00 +14°C° 0 mm 4 mps 723 mmHg 27%
    15:00 +14°C° 0 mm 4 mps 723 mmHg 29%
    16:00 +13°C° 0 mm 4 mps 724 mmHg 31%
    17:00 +12°C° 0 mm 3 mps 724 mmHg 33%
    18:00 +10°C° 0 mm 2 mps 724 mmHg 38%
    19:00 +9°C° 0 mm 2 mps 725 mmHg 42%
    20:00 +8°C° 0 mm 1 mps 726 mmHg 47%
    21:00 +8°C° 0 mm 1 mps 727 mmHg 48%
    22:00 +7°C° 0 mm 1 mps 727 mmHg 48%
    23:00 +7°C° 0 mm 1 mps 728 mmHg 49%

    Mañana, 24 Julio, Miércoles

    Tiempo Temperatura Precipitaciones Viento Presión Humedad
    00:00 +7°C° 0 mm 1 mps 728 mmHg 50%
    01:00 +6°C° 0 mm 1 mps 728 mmHg 51%
    02:00 +6°C° 0 mm 1 mps 729 mmHg 52%
    03:00 +6°C° 0 mm 1 mps 728 mmHg 53%
    04:00 +6°C° 0 mm 1 mps 728 mmHg 53%
    05:00 +5°C° 0 mm 1 mps 728 mmHg 53%
    06:00 +6°C° 0 mm 1 mps 729 mmHg 52%
    07:00 +6°C° 0 mm 1 mps 729 mmHg 51%
    08:00 +6°C° 0 mm 0 mps 730 mmHg 50%
    09:00 +9°C° 0 mm 1 mps 730 mmHg 46%
    10:00 +11°C° 0 mm 1 mps 730 mmHg 41%
    11:00 +14°C° 0 mm 1 mps 730 mmHg 37%
    12:00 +14°C° 0 mm 2 mps 729 mmHg 36%
    13:00 +15°C° 0 mm 2 mps 729 mmHg 34%
    14:00 +16°C° 0 mm 3 mps 728 mmHg 33%
    15:00 +15°C° 0 mm 2 mps 728 mmHg 36%
    16:00 +15°C° 0 mm 2 mps 727 mmHg 38%
    17:00 +14°C° 0 mm 2 mps 727 mmHg 41%
    18:00 +12°C° 0 mm 2 mps 727 mmHg 49%
    19:00 +10°C° 0 mm 1 mps 728 mmHg 58%
    20:00 +8°C° 0 mm 1 mps 728 mmHg 66%
    21:00 +8°C° 0 mm 1 mps 728 mmHg 69%
    22:00 +7°C° 0 mm 1 mps 728 mmHg 72%
    23:00 +6°C° 0 mm 0 mps 728 mmHg 75%

    Pasado mañana, 25 Julio, Jueves

    Tiempo Temperatura Precipitaciones Viento Presión Humedad
    00:00 +6°C° 0 mm 0 mps 727 mmHg 75%
    01:00 +6°C° 0 mm 0 mps 727 mmHg 74%
    02:00 +6°C° 0 mm 0 mps 726 mmHg 74%
    03:00 +6°C° 0 mm 0 mps 726 mmHg 74%
    04:00 +6°C° 0 mm 0 mps 725 mmHg 74%
    05:00 +6°C° 0 mm 0 mps 725 mmHg 74%
    06:00 +6°C° 0 mm 0 mps 725 mmHg 72%
    07:00 +6°C° 0 mm 0 mps 725 mmHg 70%
    08:00 +7°C° 0 mm 0 mps 725 mmHg 68%
    09:00 +10°C° 0 mm 1 mps 725 mmHg 60%
    10:00 +13°C° 0 mm 1 mps 725 mmHg 51%
    11:00 +15°C° 0 mm 1 mps 725 mmHg 43%
    12:00 +16°C° 0 mm 1 mps 724 mmHg 40%
    13:00 +17°C° 0 mm 2 mps 723 mmHg 38%
    14:00 +18°C° 0 mm 2 mps 723 mmHg 36%
    15:00 +17°C° 0 mm 2 mps 722 mmHg 38%
    16:00 +17°C° 0 mm 2 mps 722 mmHg 40%
    17:00 +16°C° 0 mm 2 mps 722 mmHg 42%
    18:00 +14°C° 0 mm 2 mps 722 mmHg 48%
    19:00 +12°C° 0 mm 1 mps 723 mmHg 54%
    20:00 +10°C° 0 mm 1 mps 723 mmHg 59%
    21:00 +10°C° 0 mm 1 mps 723 mmHg 61%
    22:00 +10°C° 0 mm 1 mps 723 mmHg 62%
    23:00 +9°C° 0 mm 1 mps 724 mmHg 63%

    26 Julio, Viernes

    Tiempo Temperatura Precipitaciones Viento Presión Humedad
    00:00 +9°C° 0 mm 1 mps 723 mmHg 64%
    01:00 +8°C° 0 mm 1 mps 723 mmHg 66%
    02:00 +8°C° 0 mm 1 mps 723 mmHg 67%
    03:00 +8°C° 0 mm 1 mps 723 mmHg 67%
    04:00 +7°C° 0 mm 1 mps 723 mmHg 67%
    05:00 +7°C° 0 mm 1 mps 723 mmHg 67%
    06:00 +8°C° 0 mm 1 mps 724 mmHg 65%
    07:00 +9°C° 0 mm 1 mps 724 mmHg 62%
    08:00 +9°C° 0 mm 1 mps 725 mmHg 59%
    09:00 +12°C° 0 mm 1 mps 725 mmHg 52%
    10:00 +15°C° 0 mm 1 mps 726 mmHg 44%
    11:00 +19°C° 0 mm 1 mps 726 mmHg 36%
    12:00 +20°C° 0 mm 1 mps 725 mmHg 34%
    13:00 +21°C° 0 mm 1 mps 725 mmHg 32%
    14:00 +21°C° 0 mm 2 mps 724 mmHg 31%
    15:00 +20°C° 0 mm 2 mps 724 mmHg 33%
    16:00 +20°C° 0 mm 2 mps 724 mmHg 35%
    17:00 +19°C° 0 mm 2 mps 724 mmHg 37%
    18:00 +18°C° 0 mm 1 mps 724 mmHg 42%
    19:00 +15°C° 0 mm 1 mps 725 mmHg 48%
    20:00 +13°C° 0 mm 1 mps 725 mmHg 54%
    21:00 +13°C° 0 mm 1 mps 725 mmHg 56%
    22:00 +12°C° 0 mm 1 mps 725 mmHg 58%
    23:00 +11°C° 0 mm 1 mps 726 mmHg 60%

    27 Julio, Sábado

    Tiempo Temperatura Precipitaciones Viento Presión Humedad
    00:00 +11°C° 0 mm 1 mps 725 mmHg 61%
    01:00 +11°C° 0 mm 1 mps 725 mmHg 63%
    02:00 +10°C° 0 mm 1 mps 725 mmHg 64%
    03:00 +10°C° 0 mm 1 mps 725 mmHg 66%
    04:00 +9°C° 0 mm 1 mps 725 mmHg 68%
    05:00 +8°C° 0 mm 0 mps 724 mmHg 70%
    06:00 +8°C° 0 mm 0 mps 725 mmHg 68%
    07:00 +10°C° 0 mm 1 mps 725 mmHg 66%
    08:00 +10°C° 0 mm 1 mps 726 mmHg 65%
    09:00 +13°C° 0 mm 1 mps 725 mmHg 57%
    10:00 +15°C° 0 mm 1 mps 725 mmHg 50%
    11:00 +18°C° 0 mm 1 mps 725 mmHg 43%
    12:00 +19°C° 0 mm 2 mps 725 mmHg 40%
    13:00 +20°C° 0 mm 2 mps 724 mmHg 37%
    14:00 +23°C° 0 mm 2 mps 723 mmHg 33%
    15:00 +21°C° 0 mm 2 mps 723 mmHg 35%
    16:00 +21°C° 0 mm 2 mps 722 mmHg 36%
    17:00 +20°C° 0 mm 2 mps 722 mmHg 37%
    18:00 +18°C° 0 mm 2 mps 722 mmHg 43%
    19:00 +16°C° 0 mm 2 mps 722 mmHg 49%
    20:00 +14°C° 0 mm 1 mps 723 mmHg 55%
    21:00 +13°C° 0 mm 1 mps 723 mmHg 57%
    22:00 +13°C° 0 mm 1 mps 723 mmHg 60%
    23:00 +12°C° 0 mm 1 mps 723 mmHg 62%

    28 Julio, Domingo

    Tiempo Temperatura Precipitaciones Viento Presión Humedad
    00:00 +12°C° 0 mm 1 mps 722 mmHg 63%
    01:00 +11°C° 0 mm 1 mps 722 mmHg 64%
    02:00 +11°C° 0 mm 1 mps 722 mmHg 65%
    03:00 +11°C° 0 mm 1 mps 722 mmHg 67%
    04:00 +10°C° 0 mm 1 mps 721 mmHg 69%
    05:00 +10°C° 0 mm 1 mps 721 mmHg 71%
    06:00 +10°C° 0 mm 1 mps 721 mmHg 69%
    07:00 +11°C° 0 mm 1 mps 721 mmHg 67%
    08:00 +12°C° 0 mm 1 mps 721 mmHg 65%
    09:00 +14°C° 0 mm 1 mps 721 mmHg 57%
    10:00 +18°C° 0 mm 1 mps 721 mmHg 50%
    11:00 +20°C° 0 mm 1 mps 721 mmHg 42%
    12:00 +21°C° 0 mm 1 mps 721 mmHg 40%
    13:00 +23°C° 0 mm 1 mps 720 mmHg 38%
    14:00 +24°C° 0 mm 1 mps 719 mmHg 36%
    15:00 +23°C° 0 mm 1 mps 719 mmHg 38%
    16:00 +23°C° 0 mm 1 mps 719 mmHg 41%
    17:00 +21°C° 0 mm 2 mps 718 mmHg 43%
    18:00 +20°C° 0 mm 1 mps 719 mmHg 49%
    19:00 +18°C° 0 mm 1 mps 719 mmHg 55%
    20:00 +15°C° 0 mm 1 mps 719 mmHg 61%
    21:00 +15°C° 0 mm 1 mps 719 mmHg 62%
    22:00 +14°C° 0 mm 1 mps 719 mmHg 63%
    23:00 +14°C° 0 mm 1 mps 719 mmHg 65%
    Mostrar más